Location: Cicognara
(44.9500°N, 10.4667°E)
Time: 08:45:06
(UTC+00:00)

Cosmos 1315 Rocket - Pass Details

Date: 20 June 2021
Orbit: 528 x 568 km, 81.2° (Epoch: 04 August)

Event Time Altitude Azimuth Distance (km) Brightness Sun altitude
Rises 20:00:09 0° 341° (NNW) 2,780 7.7 -7.9°
Reaches altitude 10° 20:02:28 10° 334° (NNW) 1,876 6.9 -8.2°
Maximum altitude 20:06:17 37° 266° (W) 887 4.3 -8.6°
Drops below altitude 10° 20:10:04 10° 199° (SSW) 1,849 5.2 -9.1°
Sets 20:12:19 0° 191° (S) 2,733 6.0 -9.4°
